NOZ390 ENGM-LOWS

Flight info

Callsign NOZ390
Flight time 2h 1m
Altitude 31000
Route OKSAT6D OKSAT L996 GETPA/N0449F350 L996 KELIN DCT SALLO DCT MAREM/N0448F360 DCT VESUB T106 NETES T700 BADIT BADIT2R
Aircraft B738/M-SDE2E3FGHIRWXY/LB1

Departure

Time 2026-05-01 09:37
Airport Oslo-Gardermoen International Airport (ENGM)

Arrival

Time 2026-05-01 11:38
Airport Salzburg Airport (LOWS)
Time Latitude Longitude Altitude Speed Heading
2026-05-01 08:54 60.19552 11.09908 681 ft 0 kts 108°
2026-05-01 09:19 60.19552 11.09907 681 ft 0 kts 108°
2026-05-01 09:19 60.19553 11.09906 681 ft 0 kts 108°
2026-05-01 09:20 60.19556 11.09887 681 ft 3 kts 108°
2026-05-01 09:20 60.19565 11.09831 675 ft 0 kts 108°
2026-05-01 09:21 60.19565 11.09827 677 ft 0 kts 108°
2026-05-01 09:21 60.19568 11.09808 679 ft 2 kts 108°
2026-05-01 09:21 60.19569 11.09802 677 ft 0 kts 108°
2026-05-01 09:26 60.19569 11.09803 680 ft 0 kts 108°
2026-05-01 09:26 60.19571 11.09809 681 ft 0 kts 63°
2026-05-01 09:27 60.19594 11.09785 679 ft 5 kts 311°
2026-05-01 09:27 60.19624 11.09731 680 ft 7 kts 342°
2026-05-01 09:27 60.19668 11.09744 680 ft 6 kts 11°
2026-05-01 09:28 60.19711 11.09769 680 ft 6 kts 17°
2026-05-01 09:28 60.19753 11.09793 680 ft 6 kts 15°
2026-05-01 09:28 60.19794 11.09816 681 ft 6 kts 15°
2026-05-01 09:28 60.19834 11.09839 681 ft 6 kts 16°
2026-05-01 09:29 60.19932 11.09896 681 ft 9 kts 16°
2026-05-01 09:29 60.19996 11.09934 682 ft 10 kts 16°
2026-05-01 09:30 60.20078 11.09796 682 ft 9 kts 288°
2026-05-01 09:30 60.20095 11.09677 682 ft 9 kts 286°
2026-05-01 09:30 60.20141 11.09356 681 ft 16 kts 285°
2026-05-01 09:31 60.20171 11.09143 678 ft 16 kts 286°
2026-05-01 09:31 60.20191 11.09001 680 ft 10 kts 287°
2026-05-01 09:31 60.20323 11.08990 676 ft 14 kts 16°
2026-05-01 09:32 60.20433 11.09053 677 ft 19 kts 16°
2026-05-01 09:32 60.20721 11.09220 680 ft 23 kts 16°
2026-05-01 09:32 60.20880 11.09312 683 ft 25 kts 16°
2026-05-01 09:33 60.21051 11.09411 682 ft 26 kts 15°
2026-05-01 09:33 60.21219 11.09506 681 ft 24 kts 16°
2026-05-01 09:33 60.21469 11.09642 683 ft 10 kts
2026-05-01 09:34 60.21529 11.09583 683 ft 10 kts 316°
2026-05-01 09:34 60.21554 11.09460 677 ft 10 kts 285°
2026-05-01 09:34 60.21572 11.09208 683 ft 9 kts 253°
2026-05-01 09:35 60.21532 11.09125 683 ft 9 kts 196°
2026-05-01 09:35 60.21525 11.09121 683 ft 0 kts 196°
2026-05-01 09:36 60.21456 11.09081 679 ft 39 kts 195°
2026-05-01 09:36 60.20974 11.08803 678 ft 105 kts 195°
2026-05-01 09:37 60.20077 11.08286 673 ft 161 kts 195°
2026-05-01 09:37 60.17746 11.06935 2005 ft 180 kts 199°
2026-05-01 09:37 60.16553 11.06031 2614 ft 190 kts 216°
2026-05-01 09:38 60.15169 11.00982 3462 ft 227 kts 252°
2026-05-01 09:38 60.14599 10.97903 3898 ft 246 kts 251°
2026-05-01 09:38 60.14267 10.94527 4705 ft 246 kts 264°
2026-05-01 09:39 60.14740 10.87969 6612 ft 232 kts 279°
2026-05-01 09:39 60.15063 10.84867 7577 ft 222 kts 282°
2026-05-01 09:39 60.15770 10.82131 8393 ft 228 kts 305°
2026-05-01 09:40 60.17096 10.80041 8595 ft 262 kts 331°
2026-05-01 09:40 60.20977 10.79007 9539 ft 300 kts
2026-05-01 09:40 60.22942 10.80588 10255 ft 312 kts 34°
2026-05-01 09:41 60.24375 10.83874 10706 ft 329 kts 61°
2026-05-01 09:41 60.26233 10.92617 11755 ft 346 kts 66°
2026-05-01 09:41 60.27183 10.97097 12428 ft 350 kts 65°
2026-05-01 09:42 60.28079 11.01666 13121 ft 354 kts 76°
2026-05-01 09:42 60.28226 11.06624 13746 ft 357 kts 101°
2026-05-01 09:42 60.25849 11.15029 14901 ft 346 kts 148°
2026-05-01 09:43 60.21791 11.20139 16113 ft 346 kts 156°
2026-05-01 09:43 60.19726 11.22550 16697 ft 350 kts 156°
2026-05-01 09:43 60.17616 11.25023 17298 ft 353 kts 156°
2026-05-01 09:44 60.13354 11.30077 18513 ft 358 kts 156°
2026-05-01 09:44 60.11202 11.32648 19037 ft 361 kts 156°
2026-05-01 09:44 60.09036 11.35240 19549 ft 364 kts 156°
2026-05-01 09:45 60.06852 11.37852 20050 ft 367 kts 156°
2026-05-01 09:45 60.05810 11.39099 20292 ft 369 kts 156°
2026-05-01 09:45 60.04192 11.41032 20662 ft 371 kts 156°
2026-05-01 09:46 60.01966 11.43691 21165 ft 374 kts 156°
2026-05-01 09:46 59.99726 11.46358 21670 ft 377 kts 156°
2026-05-01 09:46 59.97466 11.49043 22148 ft 379 kts 156°
2026-05-01 09:46 59.95148 11.51561 22630 ft 378 kts 161°
2026-05-01 09:47 59.92749 11.53728 23110 ft 379 kts 163°
2026-05-01 09:47 59.90308 11.55783 23580 ft 382 kts 164°
2026-05-01 09:47 59.87849 11.57833 24012 ft 385 kts 163°
2026-05-01 09:47 59.85406 11.59891 24391 ft 388 kts 163°
2026-05-01 09:48 59.82920 11.62014 24793 ft 390 kts 162°
2026-05-01 09:48 59.80423 11.64167 25186 ft 392 kts 162°
2026-05-01 09:48 59.77913 11.66341 25578 ft 394 kts 162°
2026-05-01 09:48 59.75391 11.68526 25955 ft 397 kts 162°
2026-05-01 09:49 59.72851 11.70726 26336 ft 399 kts 162°
2026-05-01 09:49 59.70299 11.72933 26703 ft 402 kts 162°
2026-05-01 09:49 59.67730 11.75149 27076 ft 404 kts 162°
2026-05-01 09:49 59.65182 11.77341 27430 ft 406 kts 161°
2026-05-01 09:50 59.62557 11.79373 27783 ft 405 kts 167°
2026-05-01 09:50 59.59860 11.80972 28141 ft 405 kts 170°
2026-05-01 09:50 59.57132 11.82412 28486 ft 407 kts 170°
2026-05-01 09:50 59.54386 11.83840 28789 ft 410 kts 170°
2026-05-01 09:51 59.51630 11.85307 29119 ft 412 kts 169°
2026-05-01 09:51 59.48863 11.86820 29475 ft 414 kts 169°
2026-05-01 09:51 59.46087 11.88364 29795 ft 416 kts 169°
2026-05-01 09:51 59.43298 11.89928 30120 ft 418 kts 169°
2026-05-01 09:52 59.40544 11.91476 30499 ft 417 kts 168°
2026-05-01 09:52 59.37761 11.93036 30897 ft 415 kts 169°
2026-05-01 09:52 59.34994 11.94581 31229 ft 414 kts 169°
2026-05-01 09:52 59.32178 11.95764 31224 ft 412 kts 182°
2026-05-01 09:53 59.26503 11.95199 31261 ft 407 kts 189°
2026-05-01 09:53 59.20901 11.94457 31262 ft 401 kts 188°
2026-05-01 09:54 59.15360 11.93818 31275 ft 403 kts 188°
2026-05-01 09:54 59.09753 11.93214 31281 ft 404 kts 187°
2026-05-01 09:55 59.04133 11.92614 31276 ft 405 kts 187°
2026-05-01 09:55 58.98501 11.92009 31272 ft 406 kts 187°
2026-05-01 09:56 58.93811 11.91503 31278 ft 406 kts 187°
2026-05-01 09:56 58.87251 11.90799 31289 ft 406 kts 187°
2026-05-01 09:57 58.81606 11.90229 31295 ft 407 kts 184°
2026-05-01 09:57 58.76892 11.91091 31302 ft 411 kts 175°
2026-05-01 09:58 58.71231 11.92760 31304 ft 411 kts 175°
2026-05-01 09:58 58.64662 11.94612 31300 ft 410 kts 176°
2026-05-01 09:59 58.59967 11.95884 31306 ft 409 kts 176°
2026-05-01 09:59 58.54323 11.97404 31318 ft 408 kts 176°
2026-05-01 10:00 58.48686 11.98920 31314 ft 409 kts 175°
2026-05-01 10:00 58.43059 12.00430 31319 ft 408 kts 175°
2026-05-01 10:01 58.37423 12.01939 31326 ft 408 kts 175°
2026-05-01 10:01 58.31826 12.03432 31320 ft 409 kts 175°
2026-05-01 10:02 58.26183 12.04932 31324 ft 409 kts 175°
2026-05-01 10:02 58.20566 12.06911 31331 ft 411 kts 170°
2026-05-01 10:03 58.14982 12.09397 31328 ft 412 kts 169°
2026-05-01 10:03 58.09397 12.11901 31332 ft 412 kts 170°
2026-05-01 10:04 58.03843 12.14341 31344 ft 412 kts 169°
2026-05-01 10:04 57.98259 12.16767 31373 ft 411 kts 169°
2026-05-01 10:05 57.92635 12.19191 31384 ft 420 kts 169°
2026-05-01 10:05 57.86843 12.21676 31383 ft 433 kts 169°
2026-05-01 10:06 57.80884 12.24226 31387 ft 445 kts 169°
2026-05-01 10:06 57.74770 12.26837 31381 ft 455 kts 169°
2026-05-01 10:07 57.68563 12.29479 31381 ft 464 kts 169°
2026-05-01 10:07 57.62203 12.32175 31376 ft 473 kts 169°
2026-05-01 10:08 57.52529 12.36260 31374 ft 476 kts 168°
2026-05-01 10:09 57.46060 12.38980 31371 ft 476 kts 168°
2026-05-01 10:09 57.39584 12.41690 31375 ft 476 kts 168°
2026-05-01 10:10 57.33119 12.44386 31378 ft 476 kts 168°
2026-05-01 10:10 57.23418 12.48414 31388 ft 476 kts 168°
2026-05-01 10:11 57.16993 12.51069 31384 ft 476 kts 168°
2026-05-01 10:11 57.10510 12.53738 31392 ft 476 kts 168°
2026-05-01 10:12 57.04029 12.56398 31395 ft 476 kts 168°
2026-05-01 10:13 56.94353 12.60351 31399 ft 477 kts 168°
2026-05-01 10:13 56.87870 12.62988 31401 ft 477 kts 168°
2026-05-01 10:14 56.78144 12.66926 31406 ft 477 kts 168°
2026-05-01 10:14 56.71645 12.69546 31405 ft 477 kts 167°
2026-05-01 10:15 56.65199 12.72134 31398 ft 477 kts 167°
2026-05-01 10:15 56.58707 12.74733 31402 ft 477 kts 167°
2026-05-01 10:16 56.52214 12.77323 31404 ft 477 kts 167°
2026-05-01 10:17 56.42504 12.81179 31408 ft 478 kts 167°
2026-05-01 10:17 56.32747 12.85034 31404 ft 479 kts 167°
2026-05-01 10:18 56.22973 12.88875 31401 ft 480 kts 167°
2026-05-01 10:19 56.16447 12.91428 31407 ft 480 kts 167°
2026-05-01 10:19 56.09917 12.93974 31406 ft 480 kts 167°
2026-05-01 10:20 56.00148 12.97767 31405 ft 480 kts 167°
2026-05-01 10:20 55.93612 13.00294 31403 ft 481 kts 167°
2026-05-01 10:21 55.83795 13.04072 31410 ft 481 kts 167°
2026-05-01 10:22 55.74008 13.07820 31422 ft 481 kts 167°
2026-05-01 10:23 55.64158 13.11572 31405 ft 482 kts 167°
2026-05-01 10:23 55.54331 13.15297 31581 ft 480 kts 166°
2026-05-01 10:24 55.47825 13.17752 31828 ft 482 kts 166°
2026-05-01 10:24 55.41254 13.20224 32083 ft 482 kts 166°
2026-05-01 10:25 55.34674 13.22690 32346 ft 483 kts 166°
2026-05-01 10:25 55.28099 13.25147 32610 ft 482 kts 166°
2026-05-01 10:26 55.24820 13.26368 32742 ft 482 kts 166°
2026-05-01 10:26 55.21541 13.27588 32871 ft 482 kts 166°
2026-05-01 10:26 55.14986 13.30021 33143 ft 481 kts 166°
2026-05-01 10:27 55.08537 13.32403 33356 ft 467 kts 166°
2026-05-01 10:27 55.02212 13.34738 33677 ft 468 kts 166°
2026-05-01 10:28 54.99018 13.35914 33839 ft 468 kts 166°
2026-05-01 10:28 54.92638 13.38246 34171 ft 469 kts 167°
2026-05-01 10:28 54.89390 13.38952 34322 ft 471 kts 175°
2026-05-01 10:29 54.82840 13.39361 34638 ft 471 kts 176°
2026-05-01 10:29 54.79565 13.39503 34784 ft 471 kts 176°
2026-05-01 10:30 54.73016 13.39820 35078 ft 471 kts 176°
2026-05-01 10:30 54.66466 13.40199 35364 ft 470 kts 176°
2026-05-01 10:31 54.53281 13.41031 35433 ft 481 kts 176°
2026-05-01 10:32 54.43183 13.41663 35420 ft 485 kts 176°
2026-05-01 10:33 54.29645 13.42501 35420 ft 487 kts 176°
2026-05-01 10:34 54.19495 13.43125 35425 ft 485 kts 175°
2026-05-01 10:34 54.12796 13.43537 35423 ft 484 kts 175°
2026-05-01 10:35 54.02677 13.44156 35415 ft 484 kts 175°
2026-05-01 10:35 53.95940 13.44566 35414 ft 484 kts 175°
2026-05-01 10:36 53.85883 13.45176 35420 ft 484 kts 175°
2026-05-01 10:37 53.79135 13.45584 35416 ft 484 kts 175°
2026-05-01 10:37 53.69018 13.46193 35422 ft 485 kts 175°
2026-05-01 10:38 53.62269 13.46597 35421 ft 485 kts 175°
2026-05-01 10:38 53.55551 13.46998 35417 ft 486 kts 175°
2026-05-01 10:39 53.48789 13.47401 35420 ft 486 kts 175°
2026-05-01 10:39 53.42002 13.47804 35415 ft 487 kts 175°
2026-05-01 10:40 53.35214 13.48205 35419 ft 487 kts 175°
2026-05-01 10:40 53.28477 13.48603 35416 ft 488 kts 175°
2026-05-01 10:41 53.21671 13.49003 35416 ft 489 kts 175°
2026-05-01 10:42 53.11464 13.49601 35416 ft 489 kts 175°
2026-05-01 10:42 53.04693 13.49995 35411 ft 490 kts 175°
2026-05-01 10:43 52.97883 13.50391 35413 ft 490 kts 175°
2026-05-01 10:43 52.91020 13.50789 35418 ft 490 kts 175°
2026-05-01 10:44 52.84241 13.51181 35419 ft 491 kts 175°
2026-05-01 10:44 52.77405 13.51574 35417 ft 491 kts 174°
2026-05-01 10:45 52.70564 13.51967 35418 ft 492 kts 174°
2026-05-01 10:45 52.63726 13.52359 35422 ft 492 kts 174°
2026-05-01 10:46 52.56874 13.52750 35420 ft 492 kts 174°
2026-05-01 10:46 52.50018 13.53139 35423 ft 493 kts 174°
2026-05-01 10:47 52.44321 13.53462 35432 ft 493 kts 174°
2026-05-01 10:47 52.37461 13.53850 35430 ft 493 kts 174°
2026-05-01 10:48 52.30587 13.54238 35430 ft 494 kts 174°
2026-05-01 10:48 52.23759 13.54622 35429 ft 494 kts 174°
2026-05-01 10:49 52.16881 13.55007 35424 ft 495 kts 174°
2026-05-01 10:49 52.09996 13.55392 35427 ft 495 kts 174°
2026-05-01 10:50 52.03096 13.55776 35412 ft 495 kts 174°
2026-05-01 10:50 51.96201 13.56159 35420 ft 496 kts 174°
2026-05-01 10:51 51.89334 13.56539 35421 ft 496 kts 174°
2026-05-01 10:51 51.82429 13.56920 35420 ft 497 kts 174°
2026-05-01 10:52 51.75495 13.57301 35419 ft 497 kts 174°
2026-05-01 10:52 51.68638 13.57677 35419 ft 497 kts 174°
2026-05-01 10:53 51.61716 13.58055 35422 ft 497 kts 173°
2026-05-01 10:53 51.54803 13.58432 35416 ft 497 kts 173°
2026-05-01 10:54 51.47883 13.58808 35446 ft 497 kts 173°
2026-05-01 10:54 51.41086 13.59176 35504 ft 498 kts 173°
2026-05-01 10:55 51.34263 13.59545 35549 ft 498 kts 173°
2026-05-01 10:55 51.27325 13.59919 35609 ft 499 kts 173°
2026-05-01 10:56 51.20387 13.60292 35668 ft 499 kts 173°
2026-05-01 10:56 51.13424 13.60664 35756 ft 499 kts 173°
2026-05-01 10:57 51.06489 13.61032 35911 ft 497 kts 173°
2026-05-01 10:57 50.99631 13.61398 36056 ft 496 kts 173°
2026-05-01 10:58 50.92737 13.61764 36199 ft 495 kts 173°
2026-05-01 10:58 50.85840 13.62130 36396 ft 496 kts 173°
2026-05-01 10:59 50.78901 13.62498 36414 ft 501 kts 173°
2026-05-01 10:59 50.71930 13.62498 36404 ft 509 kts 182°
2026-05-01 10:59 50.68428 13.61547 36413 ft 514 kts 193°
2026-05-01 11:00 50.64998 13.59891 36430 ft 515 kts 195°
2026-05-01 11:00 50.58187 13.56343 36413 ft 513 kts 196°
2026-05-01 11:01 50.51424 13.52859 36409 ft 510 kts 195°
2026-05-01 11:01 50.44673 13.49481 36414 ft 508 kts 195°
2026-05-01 11:02 50.37921 13.46150 36410 ft 507 kts 194°
2026-05-01 11:02 50.31182 13.42836 36417 ft 508 kts 194°
2026-05-01 11:03 50.24479 13.39544 36423 ft 509 kts 194°
2026-05-01 11:03 50.17722 13.36233 36427 ft 511 kts 194°
2026-05-01 11:04 50.10907 13.32905 36431 ft 513 kts 194°
2026-05-01 11:04 50.04052 13.29565 36415 ft 516 kts 194°
2026-05-01 11:05 49.97197 13.26235 36426 ft 517 kts 194°
2026-05-01 11:05 49.90349 13.22918 36424 ft 517 kts 194°
2026-05-01 11:06 49.83493 13.19607 36420 ft 516 kts 194°
2026-05-01 11:06 49.76646 13.16311 36430 ft 514 kts 194°
2026-05-01 11:07 49.66420 13.11406 36431 ft 512 kts 194°
2026-05-01 11:07 49.59630 13.08160 36420 ft 511 kts 194°
2026-05-01 11:08 49.52830 13.04920 36420 ft 510 kts 194°
2026-05-01 11:09 49.42694 13.00096 36414 ft 509 kts 195°
2026-05-01 11:09 49.36218 12.95754 36415 ft 510 kts 204°
2026-05-01 11:10 49.26643 12.88595 36413 ft 509 kts 204°
2026-05-01 11:10 49.20244 12.83963 36400 ft 508 kts 203°
2026-05-01 11:11 49.13863 12.79345 36412 ft 507 kts 204°
2026-05-01 11:11 49.07484 12.74732 36406 ft 506 kts 204°
2026-05-01 11:12 49.01106 12.70142 36407 ft 506 kts 203°
2026-05-01 11:12 48.94759 12.65682 36396 ft 504 kts 198°
2026-05-01 11:13 48.91401 12.64259 36406 ft 499 kts 186°
2026-05-01 11:13 48.87967 12.63715 36412 ft 493 kts 176°
2026-05-01 11:13 48.84560 12.64003 36392 ft 486 kts 165°
2026-05-01 11:13 48.81249 12.64967 36417 ft 484 kts 163°
2026-05-01 11:14 48.74625 12.66865 36407 ft 486 kts 165°
2026-05-01 11:14 48.67950 12.68586 36402 ft 486 kts 166°
2026-05-01 11:15 48.61275 12.70312 36406 ft 487 kts 166°
2026-05-01 11:15 48.54569 12.71883 36400 ft 489 kts 168°
2026-05-01 11:16 48.47868 12.73246 36403 ft 489 kts 168°
2026-05-01 11:16 48.41108 12.74672 36392 ft 489 kts 168°
2026-05-01 11:17 48.34471 12.76719 36402 ft 485 kts 161°
2026-05-01 11:17 48.27959 12.79210 36386 ft 486 kts 161°
2026-05-01 11:18 48.21406 12.81640 36368 ft 481 kts 162°
2026-05-01 11:18 48.18192 12.82797 36268 ft 468 kts 162°
2026-05-01 11:18 48.15067 12.83920 36158 ft 456 kts 162°
2026-05-01 11:19 48.12003 12.85024 35676 ft 454 kts 161°
2026-05-01 11:19 48.08885 12.86160 34564 ft 466 kts 161°
2026-05-01 11:19 48.05705 12.87318 32917 ft 475 kts 162°
2026-05-01 11:19 48.02449 12.88496 31250 ft 488 kts 163°
2026-05-01 11:20 47.99109 12.89697 29563 ft 497 kts 163°
2026-05-01 11:20 47.95725 12.90907 27810 ft 501 kts 163°
2026-05-01 11:20 47.92332 12.92196 26145 ft 500 kts 158°
2026-05-01 11:20 47.89234 12.94279 24947 ft 488 kts 144°
2026-05-01 11:21 47.86611 12.97312 24633 ft 455 kts 130°
2026-05-01 11:21 47.84710 13.00790 24484 ft 422 kts 117°
2026-05-01 11:21 47.83424 13.04588 23667 ft 407 kts 105°
2026-05-01 11:21 47.82828 13.08486 22659 ft 398 kts 91°
2026-05-01 11:22 47.82905 13.12556 21611 ft 391 kts 78°
2026-05-01 11:22 47.83681 13.16389 20612 ft 385 kts 63°
2026-05-01 11:22 47.85075 13.19708 19648 ft 381 kts 49°
2026-05-01 11:22 47.87023 13.22371 18694 ft 380 kts 35°
2026-05-01 11:23 47.89352 13.24142 17642 ft 380 kts 20°
2026-05-01 11:23 47.91937 13.24930 16608 ft 381 kts
2026-05-01 11:23 47.94585 13.24672 15616 ft 383 kts 352°
2026-05-01 11:23 47.97180 13.23780 14657 ft 382 kts 348°
2026-05-01 11:24 47.99741 13.22766 13651 ft 380 kts 348°
2026-05-01 11:24 48.02283 13.21734 12606 ft 377 kts 347°
2026-05-01 11:24 48.07316 13.19678 10626 ft 373 kts 347°
2026-05-01 11:25 48.09798 13.18656 9906 ft 363 kts 347°
2026-05-01 11:25 48.14354 13.16748 9577 ft 319 kts 347°
2026-05-01 11:26 48.18168 13.15114 9277 ft 289 kts 347°
2026-05-01 11:26 48.22015 13.13454 8348 ft 288 kts 347°
2026-05-01 11:26 48.23944 13.12624 7835 ft 289 kts 347°
2026-05-01 11:27 48.25871 13.11799 7359 ft 289 kts 347°
2026-05-01 11:27 48.27725 13.10627 6826 ft 295 kts 324°
2026-05-01 11:27 48.28942 13.08178 6425 ft 296 kts 289°
2026-05-01 11:27 48.29110 13.05183 6169 ft 287 kts 256°
2026-05-01 11:28 48.28437 13.02448 5982 ft 278 kts 236°
2026-05-01 11:28 48.27201 13.00308 5728 ft 276 kts 214°
2026-05-01 11:28 48.25516 12.98983 5430 ft 273 kts 192°
2026-05-01 11:29 48.21792 12.98781 5094 ft 262 kts 172°
2026-05-01 11:29 48.19978 12.98992 4977 ft 257 kts 171°
2026-05-01 11:29 48.16514 12.99392 4974 ft 243 kts 172°
2026-05-01 11:30 48.14841 12.99578 5039 ft 241 kts 172°
2026-05-01 11:30 48.13168 12.99791 5014 ft 246 kts 172°
2026-05-01 11:30 48.11460 12.99970 5003 ft 246 kts 172°
2026-05-01 11:30 48.09767 13.00135 4993 ft 240 kts 172°
2026-05-01 11:31 48.08112 13.00297 4951 ft 236 kts 172°
2026-05-01 11:31 48.06491 13.00458 5031 ft 233 kts 171°
2026-05-01 11:31 48.04851 13.00609 4966 ft 236 kts 173°
2026-05-01 11:31 48.03211 13.00772 4965 ft 236 kts 173°
2026-05-01 11:32 48.01780 13.00920 5001 ft 237 kts 173°
2026-05-01 11:32 48.00434 13.01070 4931 ft 238 kts 173°
2026-05-01 11:32 47.98798 13.01241 4998 ft 235 kts 172°
2026-05-01 11:32 47.97155 13.01488 4978 ft 235 kts 167°
2026-05-01 11:33 47.95557 13.01989 5006 ft 236 kts 163°
2026-05-01 11:33 47.93956 13.02548 5008 ft 238 kts 165°
2026-05-01 11:33 47.92333 13.03063 5070 ft 235 kts 166°
2026-05-01 11:33 47.90766 13.03504 4998 ft 222 kts 165°
2026-05-01 11:34 47.89309 13.03939 4947 ft 204 kts 165°
2026-05-01 11:34 47.87998 13.04330 4996 ft 188 kts 167°
2026-05-01 11:34 47.86711 13.04696 5031 ft 187 kts 165°
2026-05-01 11:34 47.85420 13.05088 5030 ft 185 kts 164°
2026-05-01 11:35 47.84108 13.05425 4728 ft 204 kts 167°
2026-05-01 11:35 47.82668 13.05786 4513 ft 207 kts 165°
2026-05-01 11:35 47.81235 13.06226 4017 ft 218 kts 168°
2026-05-01 11:35 47.79730 13.06476 3581 ft 219 kts 172°
2026-05-01 11:36 47.78214 13.06843 3155 ft 220 kts 167°
2026-05-01 11:36 47.76708 13.07203 2773 ft 221 kts 169°
2026-05-01 11:36 47.75201 13.07181 2447 ft 212 kts 200°
2026-05-01 11:36 47.74132 13.05842 2261 ft 195 kts 243°
2026-05-01 11:37 47.74000 13.04024 2168 ft 166 kts 299°
2026-05-01 11:37 47.74838 13.03185 1993 ft 146 kts 347°
2026-05-01 11:37 47.75768 13.02655 1884 ft 142 kts 338°
2026-05-01 11:37 47.76698 13.02051 1792 ft 152 kts 340°
2026-05-01 11:38 47.77669 13.01446 1579 ft 148 kts 338°
2026-05-01 11:38 47.78579 13.00866 1436 ft 139 kts 340°
2026-05-01 11:38 47.79361 13.00378 1423 ft 95 kts 337°
2026-05-01 11:38 47.79781 13.00115 1418 ft 23 kts 337°
2026-05-01 11:39 47.79921 13.00026 1419 ft 22 kts 337°
2026-05-01 11:39 47.80056 12.99938 1424 ft 21 kts 335°
2026-05-01 11:39 47.80188 12.99854 1419 ft 17 kts 336°
2026-05-01 11:39 47.80245 12.99795 1419 ft 10 kts 310°
2026-05-01 11:40 47.80271 12.99705 1421 ft 10 kts 279°
2026-05-01 11:40 47.80251 12.99616 1423 ft 9 kts 227°
2026-05-01 11:40 47.80190 12.99593 1422 ft 10 kts 170°
2026-05-01 11:40 47.80125 12.99629 1421 ft 10 kts 158°
2026-05-01 11:41 47.80058 12.99669 1421 ft 10 kts 158°
2026-05-01 11:41 47.79994 12.99709 1421 ft 10 kts 158°
2026-05-01 11:41 47.79928 12.99751 1420 ft 11 kts 155°
2026-05-01 11:41 47.79860 12.99797 1420 ft 11 kts 156°
2026-05-01 11:42 47.79789 12.99840 1421 ft 13 kts 158°
2026-05-01 11:42 47.79686 12.99906 1420 ft 19 kts 156°
2026-05-01 11:42 47.79560 12.99984 1422 ft 19 kts 157°
2026-05-01 11:42 47.79455 13.00051 1421 ft 8 kts 158°
2026-05-01 11:43 47.79429 13.00067 1421 ft 0 kts 156°
2026-05-01 11:44 47.79426 13.00069 1421 ft 2 kts 156°
2026-05-01 11:44 47.79382 13.00087 1421 ft 9 kts 183°
2026-05-01 11:44 47.79343 13.00022 1421 ft 9 kts 247°
2026-05-01 11:44 47.79305 12.99944 1421 ft 10 kts 193°
2026-05-01 11:45 47.79241 12.99975 1422 ft 10 kts 156°
2026-05-01 11:45 47.79204 13.00010 1422 ft 4 kts 121°
2026-05-01 11:45 47.79200 13.00062 1422 ft 6 kts 96°
2026-05-01 11:45 47.79196 13.00093 1421 ft 1 kts 101°
2026-05-01 11:46 47.79194 13.00113 1421 ft 0 kts 102°